Location: Moscow Pond
(43.6842°N, 73.2366°W)
Time: 00:28:51
(UTC+00:00)

Cosmos 374 Rocket - Pass Details

Date: 08 November 2025
Orbit: 524 x 2035 km, 62.9° (Epoch: 04 December)

Event Time Altitude Azimuth Distance (km) Brightness Sun altitude
Exits shadow 09:39:35 54° 198° (SSW) 643 4.5 -21.7°
Maximum altitude 09:40:21 78° 127° (SE) 547 4.3 -21.5°
Drops below altitude 10° 09:44:25 10° 40° (NE) 1,896 7.5 -20.8°
Sets 09:46:50 0° 39° (NE) 2,920 8.5 -20.4°
